SBONWEB Weather Reports


Display with metric or nautical units.
time (UTC)temp
F
wind
direction
speed
MPH
gust
MPH
rain 1hr
in
rain 24hr
in
rain mn
in
humidity
%
barometer
mb
20260506043603 54 97 7.0 14.0 0.01 1.42 0.44 100 1009.1
20260506042703 54 100 8.0 13.0 0.01 1.42 0.44 100 1009.4
20260506041803 54 97 9.0 16.0 0.02 1.43 0.44 100 1009.4
20260506040904 54 95 8.0 16.0 0.03 1.43 0.44 100 1009.4
20260506040003 54 99 8.0 15.0 0.19 1.43 0.44 100 1009.6
20260506035403 54 100 8.0 15.0 0.38 1.43 0.44 100 1009.6
20260506034503 54 100 7.0 11.0 0.39 1.43 0.44 100 1009.4
20260506033604 54 96 5.0 14.0 0.40 1.43 0.43 100 1009.5
20260506032703 54 94 4.0 14.0 0.41 1.43 0.43 100 1009.6
20260506031803 54 105 4.0 10.0 0.40 1.42 0.43 100 1009.7
20260506030904 54 89 3.0 10.0 0.39 1.40 0.41 100 1009.7
20260506030003 54 90 1.0 10.0 0.23 1.24 0.25 100 1009.9
20260506025618 54 7 0.0 2.0 0.06 1.08 0.09 100 1010.1
20260506024503 54 5 0.0 2.0 0.03 1.05 0.06 100 1010.2
20260506023603 54 5 0.0 1.0 0.01 1.02 0.03 100 1010.3
20260506022703 54 360 1.0 2.0 0.00 1.02 0.02 100 1010.4
20260506021803 54 217 0.0 2.0 0.00 1.02 0.02 100 1010.4
20260506020903 54 213 0.0 1.0 0.00 1.02 0.02 100 1010.5
20260506020003 54 213 0.0 1.0 0.00 1.02 0.02 100 1010.7
20260506015403 54 0 0.0 0.0 0.00 1.02 0.02 100 1010.6
20260506014503 54 213 0.0 1.0 0.00 1.02 0.02 100 1010.6
20260506013818 54 213 0.0 1.0 0.00 1.02 0.02 100 1010.6
20260506012917 54 213 1.0 2.0 0.00 1.02 0.02 97 1010.6
20260506011803 54 205 1.0 3.0 0.00 1.02 0.02 97 1010.8
20260506010903 54 201 1.0 3.0 0.00 1.02 0.02 97 1010.9
20260506010004 54 160 0.0 3.0 0.00 1.02 0.02 100 1011.0
20260506005617 54 101 0.0 1.0 0.00 1.02 0.02 100 1011.0
20260506004504 54 97 2.0 3.0 0.00 1.02 0.02 100 1011.2
20260506003603 54 95 1.0 3.0 0.00 1.02 0.02 100 1011.3
20260506002704 54 79 1.0 2.0 0.00 1.02 0.02 100 1011.3
20260506001803 54 85 1.0 3.0 0.00 1.02 0.02 100 1011.4
20260506001118 54 135 1.0 2.0 0.00 1.02 0.02 97 1011.4
20260506000004 54 182 1.0 2.0 0.00 1.02 0.02 97 1011.5
20260505235403 54 182 1.0 1.0 0.00 1.02 0.02 97 1011.6
20260505234503 54 182 0.0 1.0 0.00 1.02 0.02 97 1011.8
20260505233603 54 182 0.0 1.0 0.00 1.02 0.02 97 1011.8
20260505232703 54 182 0.0 1.0 0.00 1.02 0.02 97 1012.0
20260505231803 54 0 0.0 0.0 0.01 1.02 0.02 97 1011.9
20260505230904 54 0 0.0 0.0 0.02 1.02 0.02 97 1011.9
20260505230003 54 181 0.0 2.0 0.02 1.02 0.02 97 1012.1
20260505225403 53 180 0.0 2.0 0.02 1.02 0.02 97 1012.1
20260505224504 53 200 1.0 2.0 0.03 1.02 0.02 97 1012.3
20260505223603 54 213 0.0 2.0 0.05 1.02 0.02 97 1012.3
20260505222703 54 213 1.0 1.0 0.08 1.02 0.02 97 1012.3
20260505221804 54 215 0.0 2.0 0.09 1.01 0.02 97 1012.2
20260505220903 53 217 0.0 2.0 0.10 1.00 0.01 97 1012.3
20260505220004 53 217 1.0 2.0 0.09 0.99 0.00 97 1012.3
20260505215618 53 217 1.0 2.0 0.10 0.99 0.99 97 1012.4
20260505214503 53 207 1.0 3.0 0.10 0.98 0.98 97 1012.4
20260505213816 54 201 1.0 3.0 0.09 0.97 0.97 97 1012.6
20260505212703 54 98 1.0 4.0 0.08 0.94 0.94 97 1012.7
20260505212017 54 83 1.0 3.0 0.06 0.91 0.91 97 1012.8
20260505210903 54 100 0.0 4.0 0.04 0.90 0.90 97 1012.9
20260505210218 54 145 0.0 2.0 0.04 0.90 0.90 97 1013.0
20260505205403 54 140 0.0 2.0 0.03 0.89 0.89 97 1013.0
20260505204503 54 130 0.0 1.0 0.02 0.88 0.88 97 1013.0
20260505203603 54 133 1.0 1.0 0.02 0.87 0.87 97 1013.1
20260505202703 54 127 3.0 3.0 0.01 0.86 0.86 97 1013.1
20260505202017 54 115 4.0 7.0 0.02 0.86 0.86 97 1013.2
20260505201116 54 111 2.0 8.0 0.03 0.86 0.86 97 1013.2
20260505200003 54 136 1.0 4.0 0.05 0.86 0.86 97 1013.1
20260505195403 53 144 1.0 4.0 0.09 0.86 0.86 97 1013.1
20260505194503 53 214 1.0 2.0 0.12 0.86 0.86 97 1013.0
20260505193603 53 213 1.0 2.0 0.13 0.86 0.86 97 1012.9
20260505192704 53 213 0.0 2.0 0.12 0.85 0.85 97 1013.0
20260505191803 53 222 1.0 2.0 0.12 0.84 0.84 97 1012.9
20260505190903 53 227 1.0 2.0 0.13 0.83 0.83 97 1012.8
20260505190003 53 211 2.0 4.0 0.14 0.81 0.81 97 1012.8
20260505185618 53 207 2.0 4.0 0.13 0.78 0.78 97 1012.7
20260505184504 53 197 1.0 4.0 0.10 0.74 0.74 96 1012.5
20260505182703 53 47 0.0 1.0 0.09 0.73 0.73 97 1012.6
20260505181803 53 68 0.0 2.0 0.09 0.72 0.72 97 1012.5
20260505180903 53 166 1.0 3.0 0.07 0.69 0.69 96 1012.6
20260505180218 53 179 2.0 4.0 0.10 0.68 0.69 97 1012.6
20260505175403 53 206 2.0 4.0 0.09 0.65 0.65 97 1012.6
20260505174717 52 212 2.0 4.0 0.09 0.64 0.64 96 1012.5
20260505173603 53 203 2.0 4.0 0.11 0.64 0.64 96 1012.6
20260505172703 53 208 2.0 5.0 0.13 0.64 0.64 96 1012.7
20260505172017 53 218 3.0 5.0 0.13 0.64 0.64 96 1012.5
20260505170904 53 211 2.0 6.0 0.13 0.62 0.62 96 1012.5
20260505170003 53 214 1.0 4.0 0.08 0.57 0.57 96 1012.6
20260505165403 53 232 1.0 3.0 0.07 0.56 0.56 96 1012.5
20260505164717 53 321 1.0 3.0 0.06 0.54 0.54 96 1012.6
20260505163603 53 338 3.0 5.0 0.04 0.53 0.53 96 1012.6
20260505162917 53 339 4.0 7.0 0.03 0.51 0.51 96 1012.7
20260505161803 53 349 4.0 8.0 0.02 0.50 0.50 96 1012.7
20260505160903 53 344 3.0 8.0 0.02 0.50 0.50 96 1012.7
20260505152703 53 339 2.0 6.0 0.02 0.48 0.48 96 1013.0
20260505151803 53 273 2.0 4.0 0.02 0.48 0.48 96 1013.0
20260505150903 53 341 4.0 5.0 0.02 0.48 0.48 96 1012.9
20260505124717 54 46 2.0 4.0 0.02 0.43 0.43 95 1013.6
20260505123816 53 63 1.0 4.0 0.02 0.43 0.43 95 1013.5
20260505122703 53 161 1.0 3.0 0.02 0.43 0.43 95 1013.4
20260505121804 53 168 1.0 3.0 0.02 0.43 0.43 95 1013.5
20260505120904 54 187 1.0 4.0 0.05 0.43 0.43 95 1013.5
20260505120004 54 155 2.0 3.0 0.06 0.43 0.43 95 1013.7
20260505115403 54 74 2.0 3.0 0.06 0.42 0.42 95 1013.6
20260505114717 54 20 2.0 4.0 0.06 0.42 0.42 95 1013.7
20260505113818 54 230 2.0 5.0 0.07 0.42 0.42 95 1013.7
20260505112703 53 218 2.0 4.0 0.07 0.41 0.41 95 1013.7
20260505111804 53 209 1.0 4.0 0.06 0.40 0.40 94 1013.8
20260505110903 53 195 2.0 3.0 0.04 0.38 0.38 94 1013.9
20260505101803 54 246 2.0 9.0 0.06 0.34 0.34 95 1013.7
20260505100903 54 252 3.0 7.0 0.07 0.34 0.34 94 1013.8
20260505100003 54 262 2.0 7.0 0.06 0.32 0.32 94 1013.8
20260505095404 54 269 2.0 7.0 0.06 0.31 0.31 94 1013.9
20260505094503 54 316 2.0 5.0 0.04 0.30 0.30 94 1013.8
20260505093603 54 341 2.0 5.0 0.03 0.29 0.29 93 1013.9
20260505092703 54 342 3.0 4.0 0.03 0.29 0.29 93 1014.1
20260505092018 54 348 3.0 5.0 0.02 0.28 0.28 93 1013.9
20260505090903 54 3 3.0 5.0 0.01 0.27 0.27 94 1013.9
20260505090004 54 317 3.0 7.0 0.02 0.27 0.27 94 1013.9
20260505085403 54 324 2.0 7.0 0.01 0.26 0.26 94 1013.9
20260505084503 54 227 3.0 6.0 0.01 0.26 0.26 95 1013.9
20260505083604 54 241 3.0 7.0 0.01 0.26 0.26 95 1013.6
20260505082703 54 250 3.0 7.0 0.01 0.26 0.26 95 1013.5
20260505081803 54 268 3.0 8.0 0.02 0.26 0.26 95 1013.4
20260505080903 53 313 3.0 8.0 0.02 0.26 0.26 95 1013.3
20260505080004 53 258 4.0 10.0 0.02 0.25 0.25 94 1013.4
20260505075403 53 257 4.0 10.0 0.02 0.25 0.25 94 1013.3
20260505074503 53 258 3.0 8.0 0.04 0.25 0.25 95 1013.2
20260505073603 53 273 3.0 9.0 0.09 0.25 0.25 95 1013.4
20260505072703 53 260 3.0 7.0 0.12 0.25 0.25 95 1013.4
20260505071803 52 229 3.0 9.0 0.13 0.24 0.24 95 1013.3
20260505070904 52 242 3.0 7.0 0.14 0.24 0.24 94 1013.4
20260505070003 52 235 3.0 6.0 0.14 0.24 0.24 94 1013.7
20260505065403 52 223 3.0 6.0 0.14 0.23 0.23 94 1013.5
20260505064503 52 258 3.0 6.0 0.13 0.21 0.21 93 1013.6
20260505063818 52 338 3.0 5.0 0.10 0.17 0.17 93 1013.6
20260505062703 52 322 3.0 5.0 0.08 0.13 0.13 92 1013.4
20260505061803 52 229 5.0 10.0 0.08 0.12 0.12 92 1013.3
20260505060903 52 220 5.0 12.0 0.07 0.10 0.10 92 1013.3
20260505060218 52 219 4.0 12.0 0.07 0.09 0.09 91 1013.2
20260505055617 52 218 4.0 11.0 0.06 0.09 0.09 91 1013.2
20260505054503 52 222 5.0 12.0 0.06 0.08 0.08 90 1013.2
20260505053603 52 222 5.0 14.0 0.06 0.07 0.07 90 1012.9
20260505052703 52 225 4.0 12.0 0.04 0.06 0.06 89 1012.7
20260505051803 52 222 5.0 10.0 0.03 0.04 0.04 88 1012.9
20260505051118 52 220 5.0 11.0 0.02 0.03 0.03 88 1012.9